Location: Betra
(48.4113°N, 8.6634°E)
Time: 16:28:27
(UTC+00:00)

Resurs 1-4 Rocket - Pass Details

Date: 23 May 2024
Orbit: 798 x 813 km, 98.7° (Epoch: 16 June)

Event Time Altitude Azimuth Distance (km) Brightness Sun altitude
Rises 00:25:38 0° 24° (NNE) 3,317 6.9 -19.5°
Reaches altitude 10° 00:28:22 10° 38° (NE) 2,382 5.6 -19.4°
Maximum altitude 00:32:41 25° 93° (E) 1,556 3.7 -19.2°
Enters shadow 00:36:01 14° 141° (SE) 2,083 3.9 -19.0°
